GW4109 Weather Reports


time (UTC)temp
F
wind
direction
speed
knots
gust
knots
rain 1hr
in
rain 24hr
in
rain mn
in
humidity
%
barometer
mb
20260901030553 91 281 4.3 7.8 0.00 0.00 0.00 26 1013.3
20260901030048 91 267 3.5 6.1 0.00 0.00 0.00 26 1013.5
20260901025542 92 253 5.2 6.1 0.00 0.00 0.00 26 1013.5
20260901025037 91 272 4.3 7.8 0.00 0.00 0.00 27 1013.2
20260901024532 91 257 9.6 14.8 0.00 0.00 0.00 27 1013.2
20260901024030 92 295 6.1 10.4 0.00 0.00 0.00 27 1012.9
20260901023524 91 263 5.2 13.0 0.00 0.00 0.00 28 1013.0
20260901023020 91 275 5.2 11.3 0.00 0.00 0.00 28 1012.7
20260901022515 92 253 7.0 14.8 0.00 0.00 0.00 28 1012.9
20260901022010 92 304 7.8 15.6 0.00 0.00 0.00 28 1012.7
20260901021505 92 297 11.3 12.2 0.00 0.00 0.00 29 1012.6
20260901021000 92 304 6.1 13.9 0.00 0.00 0.00 29 1012.5
20260901020450 92 323 14.8 17.4 0.00 0.00 0.00 28 1012.4
20260901015949 92 332 9.6 15.6 0.00 0.00 0.00 29 1012.3
20260901015446 93 329 6.1 14.8 0.00 0.00 0.00 28 1012.2
20260901014945 93 297 19.1 20.0 0.00 0.00 0.00 28 1012.1
20260901014441 93 305 14.8 18.2 0.00 0.00 0.00 28 1012.1
20260901013937 93 295 11.3 17.4 0.00 0.00 0.00 28 1012.2
20260901013432 93 262 9.6 14.8 0.00 0.00 0.00 28 1012.0
20260901012927 94 295 8.7 16.5 0.00 0.00 0.00 28 1011.7
20260901012422 94 308 8.7 15.6 0.00 0.00 0.00 28 1011.7
20260901011918 94 294 6.1 16.5 0.00 0.00 0.00 27 1011.6
20260901011414 95 276 9.6 15.6 0.00 0.00 0.00 27 1011.6
20260901010912 95 336 7.8 13.0 0.00 0.00 0.00 27 1011.6
20260901010407 96 293 9.6 16.5 0.00 0.00 0.00 26 1012.0
20260901005906 97 255 4.3 15.6 0.00 0.00 0.00 25 1011.7
20260901005401 97 257 11.3 15.6 0.00 0.00 0.00 25 1011.7
20260901004856 98 263 8.7 18.2 0.00 0.00 0.00 25 1011.7
20260901004355 98 264 7.8 22.6 0.00 0.00 0.00 25 1011.8
20260901003850 98 262 5.2 14.8 0.00 0.00 0.00 24 1012.0
20260901003345 99 274 8.7 14.8 0.00 0.00 0.00 25 1012.0
20260901002844 99 287 6.1 17.4 0.00 0.00 0.00 25 1011.8
20260901002343 100 251 7.8 13.9 0.00 0.00 0.00 23 1012.1
20260901001838 102 256 7.8 14.8 0.00 0.00 0.00 23 1012.0
20260901001333 100 230 8.7 12.2 0.00 0.00 0.00 21 1012.0
20260901000829 102 255 9.6 13.9 0.00 0.00 0.00 20 1012.1
20260901000324 102 268 5.2 11.3 0.00 0.00 0.00 20 1012.1
20260831235822 102 248 10.4 11.3 0.00 0.00 0.00 20 1012.1
20260831235319 102 260 6.1 14.8 0.00 0.00 0.00 22 1012.2
20260831234813 102 256 11.3 15.6 0.00 0.00 0.00 22 1012.2
20260831234313 102 232 8.7 18.2 0.00 0.00 0.00 22 1012.1
20260831233808 101 256 10.4 17.4 0.00 0.00 0.00 23 1012.2
20260831233303 102 243 13.0 15.6 0.00 0.00 0.00 22 1012.0
20260831232753 101 227 11.3 16.5 0.00 0.00 0.00 22 1012.2
20260831232250 102 241 13.9 20.0 0.00 0.00 0.00 22 1012.2
20260831231745 102 258 9.6 20.9 0.00 0.00 0.00 23 1012.2
20260831231241 102 240 13.9 19.1 0.00 0.00 0.00 21 1012.1
20260831230736 102 248 15.6 19.1 0.00 0.00 0.00 23 1012.2
20260831230231 102 247 13.0 17.4 0.00 0.00 0.00 22 1012.3
20260831225730 102 240 7.8 18.2 0.00 0.00 0.00 22 1012.5
20260831225226 102 260 12.2 17.4 0.00 0.00 0.00 23 1012.4
20260831224720 102 241 8.7 13.0 0.00 0.00 0.00 22 1012.3
20260831224216 102 237 6.1 17.4 0.00 0.00 0.00 23 1012.5
20260831223711 103 250 13.0 16.5 0.00 0.00 0.00 22 1012.3
20260831223208 104 255 7.8 13.0 0.00 0.00 0.00 22 1012.5
20260831222703 102 254 11.3 14.8 0.00 0.00 0.00 23 1012.6
20260831222158 102 250 12.2 17.4 0.00 0.00 0.00 22 1012.6
20260831221653 102 260 7.0 14.8 0.00 0.00 0.00 23 1012.7
20260831221149 104 260 9.6 14.8 0.00 0.00 0.00 22 1012.9
20260831220638 103 220 9.6 16.5 0.00 0.00 0.00 22 1012.9
20260831220133 104 257 9.6 19.1 0.00 0.00 0.00 22 1012.9
20260831215629 105 243 7.0 9.6 0.00 0.00 0.00 22 1012.9
20260831215124 105 327 3.5 6.1 0.00 0.00 0.00 21 1013.0
20260831214622 104 325 3.5 6.1 0.00 0.00 0.00 22 1013.1
20260831214118 105 301 5.2 10.4 0.00 0.00 0.00 22 1013.2
20260831213614 103 248 6.1 10.4 0.00 0.00 0.00 22 1013.3
20260831213109 103 245 7.0 8.7 0.00 0.00 0.00 22 1013.3
20260831212605 104 281 5.2 13.0 0.00 0.00 0.00 22 1013.5
20260831212101 104 236 8.7 13.9 0.00 0.00 0.00 22 1013.6
20260831211555 104 215 7.0 13.0 0.00 0.00 0.00 23 1013.4
20260831211054 104 235 4.3 11.3 0.00 0.00 0.00 22 1013.8
20260831210549 103 231 3.5 13.0 0.00 0.00 0.00 23 1013.7
20260831210046 104 220 7.8 17.4 0.00 0.00 0.00 22 1013.8
20260831205545 103 244 5.2 13.0 0.00 0.00 0.00 22 1013.8
20260831205041 104 219 7.0 13.0 0.00 0.00 0.00 21 1013.8
20260831204536 104 199 3.5 13.0 0.00 0.00 0.00 21 1014.0
20260831204034 104 228 7.8 13.0 0.00 0.00 0.00 21 1013.9
20260831203529 102 266 7.0 13.9 0.00 0.00 0.00 22 1014.0
20260831203028 103 240 6.1 14.8 0.00 0.00 0.00 21 1013.9
20260831202522 102 237 9.6 13.0 0.00 0.00 0.00 22 1014.0
20260831202021 103 240 7.8 13.0 0.00 0.00 0.00 21 1014.1
20260831201520 102 234 7.8 13.9 0.00 0.00 0.00 21 1014.0
20260831201016 103 218 13.0 15.6 0.00 0.00 0.00 21 1014.1
20260831200512 103 224 6.1 11.3 0.00 0.00 0.00 21 1014.3
20260831200006 102 229 6.1 16.5 0.00 0.00 0.00 22 1014.3
20260831195501 103 225 5.2 13.0 0.00 0.00 0.00 22 1014.3
20260831195000 102 236 4.3 14.8 0.00 0.00 0.00 22 1014.3
20260831194456 102 236 5.2 13.9 0.00 0.00 0.00 22 1014.3
20260831193951 103 233 3.5 12.2 0.00 0.00 0.00 21 1014.4
20260831193446 103 164 7.0 14.8 0.00 0.00 0.00 21 1014.4
20260831192941 103 229 7.0 16.5 0.00 0.00 0.00 22 1014.6
20260831192436 102 203 5.2 10.4 0.00 0.00 0.00 22 1014.7
20260831191931 103 188 4.3 7.8 0.00 0.00 0.00 21 1014.5
20260831191427 102 184 5.2 11.3 0.00 0.00 0.00 21 1014.7
20260831190923 102 199 5.2 8.7 0.00 0.00 0.00 21 1014.6
20260831190418 102 183 7.0 11.3 0.00 0.00 0.00 21 1014.8
20260831185917 102 226 5.2 7.0 0.00 0.00 0.00 21 1014.7
20260831185413 102 234 3.5 10.4 0.00 0.00 0.00 21 1014.7
20260831184913 102 245 4.3 7.8 0.00 0.00 0.00 21 1014.8
20260831184408 101 228 2.6 5.2 0.00 0.00 0.00 21 1015.1
20260831183903 100 76 1.7 7.0 0.00 0.00 0.00 21 1015.1
20260831183402 100 126 0.0 7.0 0.00 0.00 0.00 21 1015.0
20260831182901 102 21 1.7 5.2 0.00 0.00 0.00 20 1015.1
20260831182357 101 328 4.3 4.3 0.00 0.00 0.00 21 1015.0
20260831181852 100 331 5.2 5.2 0.00 0.00 0.00 21 1015.2
20260831181348 100 75 1.7 3.5 0.00 0.00 0.00 22 1015.1
20260831180842 101 337 0.9 2.6 0.00 0.00 0.00 21 1015.3
20260831180337 99 110 0.9 1.7 0.00 0.00 0.00 21 1015.3
20260831175835 100 68 2.6 3.5 0.00 0.00 0.00 20 1015.3
20260831175332 98 328 1.7 3.5 0.00 0.00 0.00 21 1015.4
20260831174828 100 58 1.7 2.6 0.00 0.00 0.00 20 1015.4
20260831174323 99 349 0.0 2.6 0.00 0.00 0.00 20 1015.5
20260831173822 99 84 3.5 3.5 0.00 0.00 0.00 19 1015.6
20260831173316 98 112 1.7 3.5 0.00 0.00 0.00 19 1015.4
20260831172812 98 98 4.3 4.3 0.00 0.00 0.00 18 1015.5
20260831172307 99 58 0.9 2.6 0.00 0.00 0.00 18 1015.5
20260831171802 96 40 1.7 3.5 0.00 0.00 0.00 19 1015.4
20260831171259 97 63 2.6 3.5 0.00 0.00 0.00 19 1015.6
20260831170755 98 40 1.7 2.6 0.00 0.00 0.00 19 1015.6
20260831170251 98 87 3.5 3.5 0.00 0.00 0.00 18 1015.5
20260831165748 98 226 0.9 1.7 0.00 0.00 0.00 18 1015.4
20260831165244 97 53 2.6 2.6 0.00 0.00 0.00 17 1015.3
20260831164739 95 290 0.0 4.3 0.00 0.00 0.00 18 1015.6
20260831164235 95 280 2.6 4.3 0.00 0.00 0.00 18 1015.5
20260831163730 97 195 2.6 2.6 0.00 0.00 0.00 17 1015.4
20260831163226 97 253 0.0 0.9 0.00 0.00 0.00 16 1015.3
20260831162724 96 65 0.9 3.5 0.00 0.00 0.00 17 1015.4
20260831162224 96 35 0.0 1.7 0.00 0.00 0.00 17 1015.4
20260831161719 96 94 1.7 3.5 0.00 0.00 0.00 16 1015.3
20260831161215 95 91 1.7 3.5 0.00 0.00 0.00 17 1015.5
20260831160714 95 230 0.0 1.7 0.00 0.00 0.00 17 1015.5
20260831160204 95 125 1.7 1.7 0.00 0.00 0.00 17 1015.4
20260831155703 93 300 0.0 2.6 0.00 0.00 0.00 17 1015.4
20260831155159 95 102 0.0 2.6 0.00 0.00 0.00 16 1015.5
20260831154655 95 157 1.7 1.7 0.00 0.00 0.00 16 1015.3
20260831154150 94 281 0.0 1.7 0.00 0.00 0.00 16 1015.3
20260831153649 93 199 0.0 1.7 0.00 0.00 0.00 17 1015.4
20260831153146 94 150 0.0 1.7 0.00 0.00 0.00 16 1015.4
20260831152641 94 68 0.0 1.7 0.00 0.00 0.00 17 1015.2
20260831152137 93 297 0.0 2.6 0.00 0.00 0.00 17 1015.3
20260831151637 93 89 0.9 1.7 0.00 0.00 0.00 17 1015.2
20260831151131 92 14 0.0 1.7 0.00 0.00 0.00 17 1015.3
20260831150626 91 68 0.9 1.7 0.00 0.00 0.00 18 1015.5
20260831150121 91 221 0.0 1.7 0.00 0.00 0.00 18 1015.2
20260831145615 89 116 0.9 1.7 0.00 0.00 0.00 19 1015.3
20260831145112 89 185 0.0 1.7 0.00 0.00 0.00 19 1015.4
20260831144608 88 216 0.0 1.7 0.00 0.00 0.00 20 1015.2
20260831144103 87 256 0.9 1.7 0.00 0.00 0.00 20 1015.1
20260831143602 86 256 1.7 1.7 0.00 0.00 0.00 21 1015.3
20260831143058 85 358 0.9 0.9 0.00 0.00 0.00 22 1015.0
20260831142554 84 89 0.0 1.7 0.00 0.00 0.00 22 1015.0
20260831142050 82 269 0.0 1.7 0.00 0.00 0.00 23 1014.7
20260831141548 81 92 0.9 1.7 0.00 0.00 0.00 24 1014.9
20260831141044 80 323 1.7 1.7 0.00 0.00 0.00 24 1014.7
20260831140543 79 282 0.9 1.7 0.00 0.00 0.00 24 1014.8
20260831140037 79 298 0.0 0.9 0.00 0.00 0.00 24 1014.7
20260831135535 78 259 0.0 1.7 0.00 0.00 0.00 24 1014.6
20260831135030 79 230 0.9 1.7 0.00 0.00 0.00 24 1014.4
20260831134526 79 301 0.0 0.9 0.00 0.00 0.00 25 1014.4
20260831134021 78 278 0.0 0.9 0.00 0.00 0.00 24 1014.1
20260831133516 77 245 0.0 1.7 0.00 0.00 0.00 25 1014.3
20260831133011 77 319 0.9 1.7 0.00 0.00 0.00 24 1014.3
20260831132507 77 102 0.0 1.7 0.00 0.00 0.00 25 1014.2
20260831132005 78 151 0.9 2.6 0.00 0.00 0.00 24 1014.2
20260831131500 77 179 1.7 2.6 0.00 0.00 0.00 24 1014.1
20260831130956 77 209 1.7 2.6 0.00 0.00 0.00 25 1014.2
20260831130451 78 96 0.0 1.7 0.00 0.00 0.00 25 1014.1
20260831125950 78 253 0.0 1.7 0.00 0.00 0.00 24 1014.2
20260831125445 78 170 0.9 1.7 0.00 0.00 0.00 25 1014.1
20260831124941 77 200 0.9 1.7 0.00 0.00 0.00 25 1014.1
20260831124437 78 205 0.9 1.7 0.00 0.00 0.00 25 1014.0
20260831123933 78 168 0.0 1.7 0.00 0.00 0.00 25 1013.9
20260831123431 78 251 1.7 2.6 0.00 0.00 0.00 25 1014.0
20260831122926 80 237 0.0 1.7 0.00 0.00 0.00 24 1013.8
20260831122421 80 172 0.9 0.9 0.00 0.00 0.00 24 1013.9
20260831121916 79 170 0.9 1.7 0.00 0.00 0.00 25 1013.7
20260831121412 79 233 0.0 1.7 0.00 0.00 0.00 25 1013.7
20260831120908 79 181 1.7 3.5 0.00 0.00 0.00 24 1014.0
20260831120402 77 211 0.9 2.6 0.00 0.00 0.00 25 1013.6
20260831115856 78 165 0.0 1.7 0.00 0.00 0.00 25 1013.7
20260831115353 79 195 1.7 2.6 0.00 0.00 0.00 25 1013.7
20260831114852 79 257 0.9 1.7 0.00 0.00 0.00 25 1013.8
20260831114351 81 211 3.5 3.5 0.00 0.00 0.00 24 1013.9
20260831113848 81 119 0.0 1.7 0.00 0.00 0.00 24 1013.7
20260831113347 81 149 1.7 1.7 0.00 0.00 0.00 24 1013.6
20260831112841 80 228 0.9 1.7 0.00 0.00 0.00 25 1013.7
20260831112336 80 217 0.0 1.7 0.00 0.00 0.00 25 1013.7
20260831111831 80 49 0.0 1.7 0.00 0.00 0.00 25 1013.7
20260831111323 81 249 0.0 0.9 0.00 0.00 0.00 25 1013.7
20260831110818 82 135 0.9 1.7 0.00 0.00 0.00 24 1013.7
20260831110318 82 130 0.0 1.7 0.00 0.00 0.00 24 1013.7
20260831105811 82 309 0.0 0.9 0.00 0.00 0.00 24 1013.7
20260831105307 83 122 0.0 1.7 0.00 0.00 0.00 23 1013.7
20260831104807 82 179 0.9 1.7 0.00 0.00 0.00 24 1013.6
20260831104303 84 78 0.0 1.7 0.00 0.00 0.00 24 1013.5
20260831103758 82 102 1.7 2.6 0.00 0.00 0.00 24 1013.5
20260831103254 82 195 0.0 0.9 0.00 0.00 0.00 25 1013.7
20260831102753 83 70 0.9 1.7 0.00 0.00 0.00 24 1013.4
20260831102248 83 207 0.0 1.7 0.00 0.00 0.00 24 1013.2
20260831101744 84 88 0.9 2.6 0.00 0.00 0.00 24 1013.5
20260831101239 85 191 0.0 1.7 0.00 0.00 0.00 22 1013.3
20260831100735 84 169 0.9 2.6 0.00 0.00 0.00 21 1013.4
20260831100231 83 50 0.0 1.7 0.00 0.00 0.00 23 1013.4
20260831095729 83 205 0.0 1.7 0.00 0.00 0.00 24 1013.6
20260831095225 84 88 0.0 0.9 0.00 0.00 0.00 23 1013.3
20260831094725 84 168 1.7 2.6 0.00 0.00 0.00 24 1013.5
20260831094221 84 210 0.9 1.7 0.00 0.00 0.00 24 1013.5
20260831093717 86 342 0.9 3.5 0.00 0.00 0.00 21 1013.5
20260831093212 86 177 0.9 1.7 0.00 0.00 0.00 22 1013.5
20260831092708 86 106 0.0 1.7 0.00 0.00 0.00 20 1013.3
20260831092203 88 99 0.9 1.7 0.00 0.00 0.00 21 1013.2
20260831091703 86 185 0.0 0.9 0.00 0.00 0.00 23 1013.3
20260831091159 83 355 1.7 1.7 0.00 0.00 0.00 24 1013.4
20260831090659 85 289 0.9 1.7 0.00 0.00 0.00 23 1013.3
20260831090155 86 76 1.7 1.7 0.00 0.00 0.00 22 1013.3
20260831085651 86 64 1.7 1.7 0.00 0.00 0.00 22 1013.5
20260831085147 87 147 0.0 1.7 0.00 0.00 0.00 21 1013.6
20260831084642 87 266 0.0 1.7 0.00 0.00 0.00 23 1013.6
20260831084138 86 154 1.7 1.7 0.00 0.00 0.00 22 1013.5
20260831083634 85 63 0.0 1.7 0.00 0.00 0.00 24 1013.4
20260831083129 85 80 1.7 2.6 0.00 0.00 0.00 24 1013.4
20260831082627 85 299 0.0 2.6 0.00 0.00 0.00 24 1013.6
20260831082123 84 79 0.9 1.7 0.00 0.00 0.00 24 1013.5
20260831081618 85 63 0.0 1.7 0.00 0.00 0.00 24 1013.8
20260831081114 84 68 0.0 0.9 0.00 0.00 0.00 25 1013.5
20260831080609 84 269 0.0 0.9 0.00 0.00 0.00 26 1013.7
20260831080104 85 48 0.9 1.7 0.00 0.00 0.00 26 1013.6
20260831075600 86 63 1.7 1.7 0.00 0.00 0.00 25 1013.7
20260831075055 87 55 1.7 2.6 0.00 0.00 0.00 24 1013.8
20260831074554 87 100 0.0 0.9 0.00 0.00 0.00 24 1013.6
20260831074049 87 222 0.0 1.7 0.00 0.00 0.00 24 1013.7
20260831073544 87 255 0.9 2.6 0.00 0.00 0.00 23 1013.5
20260831073043 87 170 1.7 2.6 0.00 0.00 0.00 23 1013.6
20260831072539 87 237 0.9 0.9 0.00 0.00 0.00 23 1013.6
20260831072035 87 89 0.0 0.9 0.00 0.00 0.00 24 1013.7
20260831071534 87 223 0.0 0.9 0.00 0.00 0.00 23 1013.4
20260831071029 88 239 1.7 3.5 0.00 0.00 0.00 23 1013.5
20260831070528 88 251 0.9 2.6 0.00 0.00 0.00 23 1013.4
20260831070023 88 247 0.0 1.7 0.00 0.00 0.00 23 1013.6
20260831065521 89 59 0.9 1.7 0.00 0.00 0.00 23 1013.3
20260831065016 89 191 0.0 1.7 0.00 0.00 0.00 23 1013.4
20260831064511 90 284 0.0 1.7 0.00 0.00 0.00 23 1013.4
20260831064006 91 92 1.7 1.7 0.00 0.00 0.00 22 1013.3
20260831063501 92 332 1.7 2.6 0.00 0.00 0.00 21 1013.4
20260831062955 93 285 2.6 8.7 0.00 0.00 0.00 20 1013.4
20260831062451 92 260 6.1 7.8 0.00 0.00 0.00 20 1013.3
20260831061950 92 253 4.3 8.7 0.00 0.00 0.00 20 1013.2
20260831061448 92 268 4.3 8.7 0.00 0.00 0.00 20 1013.2
20260831060945 93 238 6.1 11.3 0.00 0.00 0.00 20 1013.2
20260831060439 92 272 4.3 11.3 0.00 0.00 0.00 20 1013.1
20260831055938 92 287 5.2 13.0 0.00 0.00 0.00 20 1013.1
20260831055433 92 285 5.2 9.6 0.00 0.00 0.00 20 1013.1
20260831054929 93 287 9.6 16.5 0.00 0.00 0.00 20 1013.1
20260831054424 93 268 10.4 13.0 0.00 0.00 0.00 20 1013.4
20260831053923 93 293 6.1 9.6 0.00 0.00 0.00 20 1013.2
20260831053421 93 288 7.0 13.0 0.00 0.00 0.00 20 1013.3
20260831052916 93 300 7.8 14.8 0.00 0.00 0.00 20 1013.1
20260831052415 93 324 13.9 14.8 0.00 0.00 0.00 20 1013.2
20260831051914 93 312 10.4 13.0 0.00 0.00 0.00 20 1013.3
20260831051412 93 287 6.1 11.3 0.00 0.00 0.00 21 1013.2
20260831050908 93 253 5.2 10.4 0.00 0.00 0.00 21 1013.2
20260831050402 93 240 5.2 13.0 0.00 0.00 0.00 20 1013.2
20260831045901 93 301 3.5 13.9 0.00 0.00 0.00 21 1013.1
20260831045355 93 303 8.7 12.2 0.00 0.00 0.00 21 1013.0
20260831044850 93 277 12.2 14.8 0.00 0.00 0.00 21 1013.1
20260831044350 93 287 12.2 17.4 0.00 0.00 0.00 21 1012.9
20260831043847 93 303 5.2 16.5 0.00 0.00 0.00 21 1013.3
20260831043346 93 260 7.8 17.4 0.00 0.00 0.00 21 1012.9
20260831042841 93 288 5.2 13.0 0.00 0.00 0.00 22 1013.3
20260831042340 93 324 4.3 10.4 0.00 0.00 0.00 22 1013.0
20260831041836 94 295 12.2 16.5 0.00 0.00 0.00 22 1013.0
20260831041335 93 345 10.4 15.6 0.00 0.00 0.00 23 1013.0
20260831040830 94 23 2.6 16.5 0.00 0.00 0.00 22 1013.0
20260831040329 93 324 9.6 13.9 0.00 0.00 0.00 23 1012.8
20260831035828 93 306 13.9 15.6 0.00 0.00 0.00 24 1012.6
20260831035327 94 299 11.3 13.9 0.00 0.00 0.00 23 1012.7
20260831034822 94 281 5.2 7.8 0.00 0.00 0.00 23 1012.5
20260831034317 94 289 4.3 13.0 0.00 0.00 0.00 22 1012.6
20260831033812 94 313 8.7 13.0 0.00 0.00 0.00 23 1012.4
20260831033307 95 287 4.3 13.0 0.00 0.00 0.00 22 1012.4
20260831032803 95 280 6.1 9.6 0.00 0.00 0.00 22 1012.3
20260831032257 94 301 6.1 15.6 0.00 0.00 0.00 22 1012.1
20260831031752 94 280 3.5 8.7 0.00 0.00 0.00 23 1012.0
20260831031251 94 308 6.1 11.3 0.00 0.00 0.00 23 1011.7
20260831030746 94 326 7.8 10.4 0.00 0.00 0.00 24 1012.0